www.pogodaiklimat.ru

Погода и климат >> Архив погоды >> Россия >> Ямало-Ненецкий АО >> Харп


ПОГОДА в Харпе

  • Прогноз погоды в Харпе
  • Монитор погоды в Харпе

АРХИВ ПОГОДЫ в Харпе

Время (UTC), дата Ветер
(напр.,м/с)
 
Видим.   Явления Облачность Т
(С)
Тd
(С)
f
(%)
Тe
(С)
Тes
(С)
Комфортность P
(гПа)
Po
(гПа)
Тmin
(С)
Tmax
(С)
R
(мм)
R24
(мм)
S
(см)
03 10.09 З 2 н/о н/о +8.9 +4.6 74 +7 +7 1008.9 999.7 +5.1 0.5
06 10.09 С 4 н/о н/о +10.9 +5.1 67 +9 +9 1009.2 1000.1
09 10.09 СВ 3 н/о н/о +10.4 +4.2 65 +9 +9 1012.8 1003.6
12 10.09 СЗ 5-11
{11}
н/о н/о +9.6 +1.9 59 +7 +7 1017.0 1007.7
15 10.09 З 2
{11}
н/о н/о +6.4 +0.3 65 +4 +4 1021.0 1011.6 +11.4
18 10.09 С 1 н/о н/о +5.3 +1.2 75 +4 +4 1022.3 1012.9
21 10.09 СЗ 3 н/о н/о +4.7 +0.1 72 +1 +1 1022.9 1013.5
00 11.09 З 4 н/о н/о +5.6 -1.6 60 +2 +2 1023.4 1013.9
03 11.09 З 3
{10}
н/о н/о +5.4 -0.3 67 +2 +2 1023.6 1014.1 +3.0
06 11.09 С 1 н/о н/о +5.4 +1.4 75 +4 +4 1023.1 1013.6
09 11.09 СВ 1 н/о н/о +7.5 -0.3 58 +7 +7 1022.3 1012.9
12 11.09 штиль 0 н/о н/о +6.1 +3.2 82 +5 +5 1021.9 1012.5
15 11.09 штиль 0 н/о н/о +4.8 +3.4 91 +4 +4 1021.7 1012.2 +7.7 2
18 11.09 СЗ 1 н/о н/о +4.0 +2.9 93 +2 +2 1021.3 1011.9
00 12.09 С 1 н/о н/о +2.7 +0.5 85 +1 +1 1022.1 1012.6
03 12.09 штиль 0 н/о н/о +3.1 +0.4 82 +2 +2 1022.0 1012.5 +2.5 2
06 12.09 Ю 1 н/о н/о +3.9 +1.8 86 +2 +2 1021.8 1012.3
09 12.09 Ю 2 н/о н/о +4.6 +3.0 89 +2 +2 1020.5 1011.1
12 12.09 Ю 1 н/о н/о +5.4 +3.9 90 +4 +4 1019.2 1009.8
15 12.09 Ю 1 н/о н/о +5.5 +4.2 91 +4 +4 1017.6 1008.2 +5.7 4
18 12.09 ЮВ 1 н/о н/о +5.4 +4.3 93 +4 +4 1015.8 1006.4
21 12.09 штиль 0 н/о н/о +5.4 +4.4 93 +4 +4 1013.9 1004.5
00 13.09 СВ 1 н/о н/о +5.6 +4.5 93 +4 +4 1012.3 1003.0
03 13.09 В 2 н/о н/о +5.6 +4.1 90 +3 +3 1011.1 1001.8 +5.4 5
06 13.09 В 1 н/о н/о +5.7 +3.9 88 +4 +4 1010.3 1001.0
09 13.09 В 2 н/о н/о +5.9 +4.1 88 +3 +3 1010.0 1000.7
12 13.09 В 2 н/о н/о +5.9 +4.4 90 +3 +3 1010.3 1001.0
15 13.09 В 1 н/о н/о +5.5 +4.1 91 +4 +4 1010.6 1001.3 +6.2 14
18 13.09 В 2 н/о н/о +5.1 +3.4 89 +2 +2 1010.6 1001.2
21 13.09 В 1 н/о н/о +4.6 +3.1 90 +3 +3 1010.4 1001.0
00 14.09 В 2 н/о н/о +4.1 +2.6 90 +1 +1 1010.5 1001.1
03 14.09 В 1 н/о н/о +3.9 +2.3 89 +2 +2 1010.7 1001.3 +3.8 1
06 14.09 В 2 н/о н/о +4.3 +2.4 87 +2 +2 1011.0 1001.7
09 14.09 В 2 н/о н/о +5.1 +2.8 85 +3 +3 1011.3 1001.9
12 14.09 В 2 н/о н/о +5.8 +3.2 83 +3 +3 1011.0 1001.7
15 14.09 В 2 н/о н/о +4.8 +3.3 90 +2 +2 1011.3 1001.9 +5.8 2
18 14.09 В 2 н/о н/о +4.6 +3.2 91 +2 +2 1010.6 1001.2
21 14.09 В 2 н/о н/о +4.6 +3.3 91 +2 +2 1009.7 1000.3
00 15.09 В 3 н/о н/о +4.1 +2.6 90 0 0 1008.4 999.0
03 15.09 В 3 н/о н/о +4.2 +2.7 90 0 0 1006.8 997.5 +4.1 3
06 15.09 В 3 н/о н/о +4.3 +2.7 89 +1 +1 1004.9 995.6
09 15.09 В 4 н/о н/о +4.0 +2.3 89 -1 -1 1003.3 994.0
12 15.09 СВ 4
{11}
н/о н/о +3.9 +2.1 88 -1 -1 1002.0 992.7
15 15.09 СВ 2 н/о н/о +4.3 +2.3 87 +2 +2 1000.9 991.6 +4.4 9
18 15.09 СВ 1 н/о н/о +4.4 +2.2 86 +3 +3 999.6 990.3
21 15.09 ЮВ 1 н/о н/о +4.1 +2.7 91 +3 +3 998.3 989.1
00 16.09 СВ 1 н/о н/о +3.7 +1.9 88 +2 +2 998.0 988.8

 

Местоположение метеостанции Харп (Ямало-Ненецкий АО, Россия): широта 66.80 долгота 65.78 высота над уровнем моря 76 м.

В архиве по умолчанию представлена погода в Харпе за последнюю неделю. Архивные данные за месяц целиком и за предыдущие месяцы, начиная с января 2011 года, Вы можете получить, выбрав интересующий диапазон дат из раскрывающегося списка и нажав кнопку "Ввод!".


*Определитесь, кто Вы:
робот инопланетянин человек

Внимание! Время в таблицах - всемирное. Для получения местного времени необходимо прибавить поправку, которая равна 5 ч.

Смотрите также архив погоды в соседних городах и на ближайших метеорологических станциях:

Погода в Салехарде (Ямало-Ненецкий АО, Россия) (49 км)
Погода в Елецкой (Коми, Россия) (80 км)
Погода в Белоярске (Ямало-Ненецкий АО, Россия) (103 км)
Погода в Питляре (Ямало-Ненецкий АО, Россия) (108 км)
Погода в Воркуте (Коми, Россия) (109 км)
Погода в Полуе (Ямало-Ненецкий АО, Россия) (155 км)
Погода в Мужах (Ямало-Ненецкий АО, Россия) (165 км)
Погода в Петруни (Коми, Россия) (225 км)
Погода в Харуте (Ненецкий АО, Россия) (274 км)
Погода в Усть-Каре (Ненецкий АО, Россия) (275 км)

Пояснения к столбцам:

Ветер - указаны скорость ветра в м/с - средняя за 10 мин, порывы в срок и между сроками (в фигурных скобках) и направление, откуда дует ветер: С - северный, СВ - северо-восточный, В - восточный, ЮВ - юго-восточный, Ю - южный, ЮЗ - юго-западный, З - западный, СЗ - северо-западный.
Видимость - горизонтальная дальность видимости в метрах или километрах. При видимости от 1 до 10 км при отсутствии осадков обычно наблюдается дымка, при ухудшении видимости до 1 км и менее - туман. В сухую погоду видимость может ухудшаться дымом, пылью или мглою.
Явления - указаны атмосферные явления, наблюдавшиеся в срок или в последний час перед сроком; фигурными скобками обозначены явления, наблюдавшиеся между сроками (за 1-3 часа до срока); квадратными скобками обозначены град или гололедные отложения с указанием их диаметра в мм.
Облачность - указаны через наклонную черту общая и нижняя облачность в баллах и высота нижней границы облаков в метрах; квадратными скобками обозначены формы облаков: Ci - перистые, Cs - перисто-слоистые, Cc - перисто-кучевые, Ac - высококучевые, As - высокослоистые, Sc - слоисто-кучевые, Ns - слоисто-дождевые, Cu - кучевые, Cb - кучево-дождевые. Подробнее классификацию облаков см. в Атласе облаков (PDF).
T - Температура воздуха - температура, измеренная на высоте 2 м над землей.
Td - Температура точки росы - температура, при понижении до которой содержащийся в воздухе водяной пар достигнет насыщения.
f - Относительная влажность воздуха - влажноcть воздуха, измеренная на высоте 2 м над землей.
Te - Эффективная температура - температура, которую ощущает одетый по сезону человек в тени. Характеристика душности погоды. При расчете учитывается влияние влажности воздуха и скорости ветра на теплоощущения человека.
Tes - Эффективная температура на солнце - температура, которую ощущает человек, с поправкой на солнечный нагрев. Характеристика знойности погоды. Зависит от высоты солнца над горизонтом, облачности и скорости ветра. Ночью, в пасмурную погоду, а также при ветре 12 м/с и более поправка равна нулю.
P - Атмосферное давление - приведенное к уровню моря атмосферное давление.
Po - Атмосферное давление - измеренное на уровне метеостанции атмосферное давление.
Tmin - Минимальная температура - минимум температуры воздуха на высоте 2 м над землей.
Tmax - Максимальная температура - максимум температуры воздуха на высоте 2 м над землей.
R - Количество осадков - Количество выпавших осадков за период времени, мм. При наведении курсора мыши на число - период времени, за который выпало указанное количество осадков.
R24 - Количество осадков - Количество выпавших осадков за 24 часа, мм.
S - Снежный покров - Высота снежного покрова, см. При наведении курсора мыши на число - состояние снежного покрова и степень покрытия местности в баллах.